Weather History for KPGD - December, 2012

Change the Weather History Date:

Saturday, December 1, 2012

  Actual Average (KFMY) Record (KFMY)
Temperature  
Mean Temperature 68 °F 69 °F  
Max Temperature 81 °F 79 °F 88 °F (1940)
Min Temperature 54 °F 59 °F 36 °F (1957)
Degree Days  
Heating Degree Days 0 1  
Month to date heating degree days 1  
Since 1 July heating degree days 19  
Cooling Degree Days 2 5  
Month to date cooling degree days 5  
Year to date cooling degree days 3868  
Growing Degree Days 18 (Base 50)    
Moisture  
Dew Point 56 °F    
Average Humidity 75    
Maximum Humidity 94    
Minimum Humidity 44    
Precipitation  
Precipitation 0.01 in 0.04 in 3.64 in (1925)
Month to date precipitation 0.04  
Year to date precipitation 54.26  
Sea Level Pressure  
Sea Level Pressure 30.21 in    
Wind  
Wind Speed 7 mph (NE)    
Max Wind Speed 15 mph    
Max Gust Speed 22 mph    
Visibility 10 miles    
Events      
T = Trace of Precipitation, MM = Missing Value Source: NWS Daily Summary

Daily Weather History Graph

Daily Weather History Graph

Search for Another Location

Airport or City:

Trip Planner

Search our weather history database for the weather conditions in past years. The results will help you decide how hot, cold, wet, or windy it might be!

Date:

Astronomy

Dec. 01, 2012 Rise Set
Actual Time 7:00 AM EST 5:34 PM EST
Civil Twilight 6:35 AM EST 5:59 PM EST
Nautical Twilight 6:06 AM EST 6:28 PM EST
Astronomical Twilight 5:38 AM EST 6:56 PM EST
Moon 8:18 PM EST (12/1) 9:15 AM EST (12/1)
Length of Visible Light 11h 24m
Length of Day
10h 34m
Waning Gibbous, 92% of the Moon is Illuminated
Dec 1
Waning Gibbous
Dec 6
Last Quarter
Dec 13
New
Dec 20
First Quarter
Dec 28
Full

Hourly Weather History & Observations

Time (EST) Temp. Heat Index Dew Point Humidity Pressure Visibility Wind Dir Wind Speed Gust Speed Precip Events Conditions
12:45 AM 57.2 °F - 55.4 °F 94% 30.20 in 10.0 mi NE 5.8 mph - N/A   Partly Cloudy
12:53 AM 57.9 °F - 55.9 °F 93% 30.20 in 10.0 mi NE 5.8 mph - N/A   Clear
1:53 AM 57.0 °F - 54.0 °F 89% 30.20 in 10.0 mi NNE 6.9 mph - N/A   Clear
2:53 AM 55.9 °F - 53.1 °F 90% 30.19 in 10.0 mi NE 5.8 mph - N/A   Clear
3:53 AM 55.0 °F - 52.0 °F 89% 30.19 in 10.0 mi NE 4.6 mph - N/A   Clear
5:53 AM 54.0 °F - 51.1 °F 90% 30.20 in 10.0 mi NE 4.6 mph - N/A   Clear
6:53 AM 54.0 °F - 52.0 °F 93% 30.21 in 10.0 mi NE 6.9 mph - 0.01 in   Clear
7:53 AM 59.0 °F - 55.0 °F 87% 30.22 in 10.0 mi NE 5.8 mph - N/A   Clear
8:53 AM 66.0 °F - 60.1 °F 81% 30.25 in 10.0 mi NE 8.1 mph - N/A   Clear
9:53 AM 75.0 °F - 60.1 °F 60% 30.26 in 10.0 mi NE 11.5 mph - N/A   Clear
10:53 AM 78.1 °F - 57.9 °F 50% 30.25 in 10.0 mi NE 13.8 mph - N/A   Clear
11:53 AM 80.1 °F 80.4 °F 57.0 °F 45% 30.24 in 10.0 mi NE 12.7 mph 20.7 mph N/A   Partly Cloudy
1:53 PM 81.0 °F 81.0 °F 57.0 °F 44% 30.18 in 10.0 mi NE 15.0 mph 20.7 mph N/A   Scattered Clouds
2:53 PM 78.1 °F - 59.0 °F 52% 30.17 in 10.0 mi ENE 13.8 mph - N/A   Partly Cloudy
3:53 PM 79.0 °F - 59.0 °F 50% 30.17 in 10.0 mi East 15.0 mph 21.9 mph N/A   Scattered Clouds
4:53 PM 77.0 °F - 59.0 °F 54% 30.18 in 10.0 mi East 8.1 mph - N/A   Partly Cloudy
5:53 PM 69.1 °F - 57.9 °F 68% 30.19 in 10.0 mi ENE 5.8 mph - N/A   Mostly Cloudy
6:53 PM 68.0 °F - 57.9 °F 70% 30.20 in 10.0 mi ENE 6.9 mph - N/A   Partly Cloudy
7:53 PM 64.9 °F - 57.9 °F 78% 30.22 in 10.0 mi ENE 6.9 mph - N/A   Clear
8:53 PM 62.1 °F - 57.0 °F 84% 30.23 in 10.0 mi ENE 6.9 mph - N/A   Clear
9:53 PM 61.0 °F - 57.0 °F 87% 30.24 in 10.0 mi NNE 4.6 mph - N/A   Clear
10:53 PM 60.1 °F - 57.0 °F 90% 30.25 in 10.0 mi NE 5.8 mph - N/A   Clear
11:53 PM 60.1 °F - 57.0 °F 90% 30.24 in 10.0 mi NE 5.8 mph - N/A   Clear